Weather History for Mammoth, CA

Change the Weather History Date:

Thursday, January 30, 2014

  Actual Average Record
Temperature  
Mean Temperature 40 °F -  
Max Temperature 50 °F 34 °F 51 °F (2003)
Min Temperature 30 °F 20 °F 3 °F (1998)
Degree Days  
Heating Degree Days 25    
Moisture  
Dew Point 30 °F    
Average Humidity 81    
Maximum Humidity 100    
Minimum Humidity 32    
Precipitation  
Precipitation 0.19 in - - ()
Sea Level Pressure  
Sea Level Pressure 29.79 in    
Wind  
Wind Speed 15 mph (NW)    
Max Wind Speed 36 mph    
Max Gust Speed 53 mph    
Visibility 8 miles    
Events Rain , Snow    
Averages and records for this station are not official NWS values.
T = Trace of Precipitation, MM = Missing Value Source: NWS Daily Summary

Daily Weather History Graph

Daily Weather History Graph

Search for Another Location

Airport:

Trip Planner

Search our weather history database for the weather conditions in past years. The results will help you decide how hot, cold, wet, or windy it might be!

Date:

Astronomy

Jan. 30, 2014 Rise Set
Actual Time 7:00 AM PST 5:17 PM PST
Civil Twilight 6:32 AM PST 5:44 PM PST
Nautical Twilight 6:01 AM PST 6:16 PM PST
Astronomical Twilight 5:30 AM PST 6:47 PM PST
Moon 6:31 AM PST (1/30) 5:33 PM PST (1/30)
Length of Visible Light 11h 11m
Length of Day
10h 16m
Waning Crescent, 0% of the Moon is Illuminated
Jan 30
Waning Crescent
Jan 30
New
Feb 6
First Quarter
Feb 14
Full
Feb 22
Last Quarter

Hourly Weather History & Observations

Time (PST) Temp. Windchill Dew Point Humidity Pressure Visibility Wind Dir Wind Speed Gust Speed Precip Events Conditions
12:15 AM 50.0 °F - 21.2 °F 32% 29.94 in 10.0 mi WSW 33.4 mph 43.7 mph N/A   Scattered Clouds
12:35 AM 50.0 °F - 23.0 °F 35% 29.93 in 10.0 mi West 29.9 mph 47.2 mph N/A   Scattered Clouds
12:55 AM 50.0 °F - 23.0 °F 35% 29.92 in 10.0 mi West 35.7 mph 52.9 mph N/A   Scattered Clouds
1:15 AM 48.2 °F - 23.0 °F 37% 29.90 in 10.0 mi West 25.3 mph 47.2 mph N/A   Light Drizzle
1:35 AM 46.4 °F 38.1 °F 24.8 °F 43% 29.91 in 10.0 mi WSW 24.2 mph 36.8 mph N/A   Light Drizzle
1:55 AM 48.2 °F - 23.0 °F 37% 29.90 in 10.0 mi West 19.6 mph 40.3 mph N/A   Overcast
2:15 AM 46.4 °F 37.7 °F 24.8 °F 43% 29.89 in 10.0 mi West 26.5 mph 42.6 mph N/A   Overcast
2:35 AM 44.6 °F 35.3 °F 30.2 °F 57% 29.88 in 7.0 mi SW 26.5 mph 42.6 mph N/A   Drizzle
2:55 AM 44.6 °F 36.9 °F 30.2 °F 57% 29.86 in 10.0 mi West 18.4 mph 31.1 mph N/A   Light Drizzle
3:15 AM 42.8 °F 35.8 °F 32.0 °F 66% 29.83 in 10.0 mi West 13.8 mph 24.2 mph N/A Rain Rain
3:35 AM 41.0 °F 35.2 °F 33.8 °F 76% 29.84 in 10.0 mi West 9.2 mph 19.6 mph N/A Rain Light Rain
3:55 AM 41.0 °F 39.0 °F 33.8 °F 76% 29.83 in 10.0 mi SW 3.5 mph - N/A Rain Rain
4:15 AM 39.2 °F - 35.6 °F 87% 29.83 in 7.0 mi Calm Calm - N/A Rain Light Rain
4:35 AM 39.2 °F 37.0 °F 35.6 °F 87% 29.81 in 5.0 mi NNW 3.5 mph - N/A Rain Light Rain
4:55 AM 39.2 °F 35.9 °F 35.6 °F 87% 29.82 in 7.0 mi NNW 4.6 mph - 0.01 in Rain Light Rain
5:15 AM 37.4 °F 32.8 °F 35.6 °F 93% 29.81 in 4.0 mi North 5.8 mph - 0.01 in Rain Light Rain
5:35 AM 37.4 °F 34.9 °F 35.6 °F 93% 29.81 in 7.0 mi East 3.5 mph - 0.02 in Rain Light Rain
5:55 AM 37.4 °F 32.1 °F 35.6 °F 93% 29.79 in 5.0 mi East 6.9 mph - 0.04 in Rain Light Rain
6:15 AM 37.4 °F 33.8 °F 35.6 °F 93% 29.81 in 5.0 mi SE 4.6 mph - 0.01 in Rain Rain
6:35 AM 35.6 °F 30.7 °F 35.6 °F 100% 29.80 in 3.0 mi SE 5.8 mph - 0.03 in Rain Light Rain
6:55 AM 35.6 °F - 35.6 °F 100% 29.80 in 7.0 mi Calm Calm - 0.04 in Rain Light Rain
7:15 AM 33.8 °F 27.0 °F 33.8 °F 100% 29.79 in 7.0 mi ESE 8.1 mph - 0.01 in Rain Rain
7:35 AM 35.6 °F 28.6 °F 33.8 °F 93% 29.79 in 7.0 mi East 9.2 mph - 0.01 in Rain Light Rain
7:55 AM 35.6 °F 29.2 °F 35.6 °F 100% 29.78 in 7.0 mi ESE 8.1 mph - 0.01 in Rain Light Rain
8:15 AM 35.6 °F 29.9 °F 35.6 °F 100% 29.77 in 10.0 mi ESE 6.9 mph - N/A Rain Light Rain
8:35 AM 35.6 °F 28.6 °F 35.6 °F 100% 29.76 in 10.0 mi ESE 9.2 mph - N/A Rain Light Rain
8:55 AM 35.6 °F 32.8 °F 35.6 °F 100% 29.78 in 7.0 mi East 3.5 mph - N/A Rain Light Rain
9:15 AM 35.6 °F - 33.8 °F 93% 29.79 in 3.0 mi Calm Calm - 0.01 in Rain Light Rain
9:35 AM 33.8 °F 29.6 °F 32.0 °F 93% 29.78 in 0.5 mi North 4.6 mph - 0.04 in Snow Light Snow
9:55 AM 32.0 °F 26.4 °F 32.0 °F 100% 29.79 in 0.8 mi WNW 5.8 mph - 0.06 in Snow Light Snow
10:15 AM 32.0 °F 20.8 °F 32.0 °F 100% 29.81 in 0.2 mi WNW 17.3 mph - 0.02 in Snow Snow
10:35 AM 32.0 °F 25.6 °F 32.0 °F 100% 29.80 in 1.5 mi NW 6.9 mph 10.4 mph 0.02 in Snow Light Snow
10:55 AM 32.0 °F 27.5 °F 32.0 °F 100% 29.79 in 1.0 mi NW 4.6 mph - 0.03 in Snow Light Snow
11:15 AM 33.8 °F 28.6 °F 33.8 °F 100% 29.79 in 2.5 mi North 5.8 mph - N/A Snow Light Snow
11:35 AM 33.8 °F 30.8 °F 32.0 °F 93% 29.79 in 2.0 mi North 3.5 mph - N/A Snow Light Snow
11:55 AM 33.8 °F 28.6 °F 33.8 °F 100% 29.79 in 3.0 mi NNW 5.8 mph - N/A Snow Light Snow
12:15 PM 33.8 °F 28.6 °F 33.8 °F 100% 29.78 in 5.0 mi NE 5.8 mph - N/A Snow Light Snow
12:35 PM 33.8 °F 28.6 °F 33.8 °F 100% 29.77 in 5.0 mi SE 5.8 mph - N/A Snow Light Snow
12:55 PM 39.2 °F 29.3 °F 30.2 °F 70% 29.76 in 10.0 mi WSW 20.7 mph 33.4 mph N/A   Overcast
1:15 PM 37.4 °F - 33.8 °F 87% 29.75 in 5.0 mi Calm Calm - N/A Snow Light Snow
1:35 PM 42.8 °F 35.1 °F 28.4 °F 57% 29.74 in 10.0 mi SW 16.1 mph 29.9 mph N/A   Overcast
1:55 PM 39.2 °F 30.2 °F 32.0 °F 75% 29.76 in 7.0 mi NW 17.3 mph 24.2 mph N/A   Overcast
2:15 PM 37.4 °F 27.2 °F 32.0 °F 81% 29.75 in 10.0 mi NNW 19.6 mph 31.1 mph N/A   Overcast
2:35 PM 39.2 °F 30.8 °F 32.0 °F 75% 29.75 in 10.0 mi NW 15.0 mph 23.0 mph N/A   Mostly Cloudy
2:55 PM 37.4 °F 29.3 °F 30.2 °F 75% 29.75 in 10.0 mi NW 12.7 mph 21.9 mph N/A   Scattered Clouds
3:15 PM 37.4 °F 29.8 °F 30.2 °F 75% 29.75 in 10.0 mi NW 11.5 mph 21.9 mph N/A   Mostly Cloudy
3:35 PM 39.2 °F 33.0 °F 26.6 °F 61% 29.75 in 10.0 mi WSW 9.2 mph 23.0 mph N/A   Clear
3:55 PM 37.4 °F 30.3 °F 28.4 °F 70% 29.76 in 10.0 mi NW 10.4 mph 16.1 mph N/A   Scattered Clouds
4:15 PM 35.6 °F 28.0 °F 26.6 °F 70% 29.76 in 7.0 mi West 10.4 mph 25.3 mph N/A   Scattered Clouds
4:35 PM 33.8 °F 25.8 °F 28.4 °F 81% 29.76 in 10.0 mi WNW 10.4 mph 18.4 mph N/A   Scattered Clouds
4:55 PM 33.8 °F 25.8 °F 26.6 °F 75% 29.75 in 10.0 mi WNW 10.4 mph 17.3 mph N/A   Clear
5:15 PM 33.8 °F 28.6 °F 26.6 °F 75% 29.76 in 10.0 mi West 5.8 mph - N/A   Clear
5:35 PM 32.0 °F 25.6 °F 28.4 °F 87% 29.76 in 10.0 mi West 6.9 mph 17.3 mph N/A   Clear
5:55 PM 30.2 °F 23.4 °F 28.4 °F 93% 29.75 in 10.0 mi East 6.9 mph - N/A   Clear
6:15 PM 30.2 °F 25.4 °F 28.4 °F 93% 29.76 in 10.0 mi East 4.6 mph - N/A   Clear
6:35 PM 30.2 °F 21.3 °F 28.4 °F 93% 29.75 in 10.0 mi ESE 10.4 mph - N/A   Clear
6:55 PM 32.0 °F 24.8 °F 26.6 °F 80% 29.75 in 10.0 mi ESE 8.1 mph - N/A   Clear
7:15 PM 30.2 °F 25.4 °F 26.6 °F 86% 29.76 in 10.0 mi East 4.6 mph - N/A   Scattered Clouds
7:35 PM 30.2 °F 25.4 °F 26.6 °F 86% 29.76 in 10.0 mi ESE 4.6 mph - N/A   Mostly Cloudy
7:55 PM 30.2 °F 26.7 °F 26.6 °F 86% 29.75 in 10.0 mi East 3.5 mph - N/A   Overcast
8:15 PM 30.2 °F 24.3 °F 26.6 °F 86% 29.75 in 10.0 mi ESE 5.8 mph - N/A   Overcast
8:35 PM 30.2 °F 25.4 °F 26.6 °F 86% 29.75 in 10.0 mi ESE 4.6 mph - N/A   Overcast
8:55 PM 30.2 °F 22.6 °F 26.6 °F 86% 29.75 in 10.0 mi ESE 8.1 mph - N/A   Overcast
9:15 PM 30.2 °F 24.3 °F 26.6 °F 86% 29.75 in 10.0 mi ESE 5.8 mph - N/A   Overcast
9:35 PM 30.2 °F 26.7 °F 26.6 °F 86% 29.75 in 10.0 mi ENE 3.5 mph - N/A   Overcast
9:55 PM 30.2 °F - 26.6 °F 86% 29.76 in 10.0 mi Calm Calm - N/A   Overcast
10:15 PM 30.2 °F 24.3 °F 28.4 °F 93% 29.75 in 10.0 mi SSW 5.8 mph - N/A   Overcast
10:35 PM 30.2 °F 21.3 °F 26.6 °F 86% 29.75 in 10.0 mi NNW 10.4 mph - N/A   Overcast
10:55 PM 30.2 °F 20.2 °F 23.0 °F 75% 29.75 in 10.0 mi NW 12.7 mph 24.2 mph N/A   Overcast
11:15 PM 30.2 °F 21.9 °F 23.0 °F 75% 29.75 in 10.0 mi NNW 9.2 mph 19.6 mph N/A   Overcast
11:35 PM 30.2 °F 26.7 °F 21.2 °F 69% 29.75 in 10.0 mi NNW 3.5 mph - N/A   Overcast
11:55 PM 30.2 °F 20.2 °F 23.0 °F 75% 29.75 in 10.0 mi NW 12.7 mph 16.1 mph N/A   Overcast